EHI
3 2 1 0 0 0 0 0 0 0 0 0 1 1 0 0 0 0 0 0 0 0 0 0 0 0 0 0 0 0 0 0 0 0 0 0 0 0 0 0 0 0 0
4 3 1 0 0 0 0 0 0 0 0 1 2 2 1 0 0 0 0 0 0 0 0 0 0 0 0 0 0 0 0 0 0 0 0 0 0 0 0 0 0 0 0
5 3 2 1 1 1 1 0 0 0 0 1 2 2 1 0 0 0 0 0 0 0 0 0 0 0 0 0 0 0 0 0 0 0 0 0 0 0 0 0 0 0 0
5 4 2 1 2 2 2 1 0 0 0 0 1 2 2 1 0 0 0 0 0 0 0 0 0 0 0 0 0 0 0 0 0 0 0 0 0 0 0 0 0 0 0
4 3 3 2 2 3 3 2 1 0 0 0 1 2 3 2 1 0 0 0 0 0 0 0 0 0 0 0 0 0 0 0 0 0 0 0 0 0 0 0 0 0 0
3 3 3 3 2 3 3 2 1 0 0 0 0 1 3 2 1 0 0 0 0 0 0 0 0 0 0 0 0 0 0 0 0 0 0 0 0 0 0 0 0 0 0
2 2 3 3 3 4 3 3 1 0 0 0 0 1 2 2 1 0 0 0 0 0 0 0 0 0 0 0 0 0 0 0 0 0 0 0 0 0 0 0 0 0 0
1 2 3 4 5 5 4 3 2 1 0 0 0 0 1 2 1 0 0 0 0 0 0 0 0 0 0 0 0 0 0 0 0 0 0 0 0 0 0 0 0 0 0
2 2 3 4 5 5 5 4 3 1 0 0 0 0 1 1 1 0 0 0 0 0 0 0 0 0 0 0 0 0 0 0 0 0 0 0 0 0 0 0 0 0 0
3 2 3 3 4 4 4 5 4 2 0 0 0 0 0 0 0 0 0 0 0 0 0 0 0 0 0 0 0 0 0 0 0 0 0 0 0 0 0 0 0 0 0
3 2 2 3 3 3 3 4 4 2 1 0 0 0 0 0 0 0 0 0 0 0 0 0 0 0 0 0 0 0 0 0 0 0 0 0 0 0 0 0 0 0 0
4 3 2 2 3 3 3 3 3 3 2 1 0 0 0 0 0 0 0 0 0 0 0 0 0 0 0 0 0 0 0 0 0 0 0 0 0 0 0 0 0 0 0
4 3 2 2 2 3 3 3 4 5 4 2 1 0 0 0 0 0 0 0 0 0 0 0 0 0 0 0 0 0 0 0 0 0 0 0 0 0 0 0 0 0 0
3 3 2 2 1 1 2 4 5 5 4 2 1 0 0 0 0 0 0 0 0 0 0 0 0 0 0 0 0 0 0 0 0 0 0 0 0 0 0 0 0 0 0
3 3 2 2 1 0 2 4 5 5 3 1 1 0 0 0 0 0 0 0 0 0 0 0 0 0 0 0 0 0 0 0 0 0 0 0 0 0 0 0 0 0 0
3 3 2 1 1 1 2 3 3 3 2 1 0 1 1 0 0 0 0 0 0 0 0 0 0 0 0 0 0 0 0 0 0 0 0 0 0 0 0 0 0 0 0
1 2 2 1 1 2 2 2 1 1 1 0 1 2 2 1 0 0 0 0 0 0 0 0 0 0 0 0 0 0 0 0 0 0 0 0 0 0 0 0 0 0 0
1 1 1 1 1 2 3 2 0 0 0 1 1 2 2 1 0 0 0 0 0 0 0 0 0 0 0 0 0 0 0 0 0 0 0 0 0 0 0 0 0 0 0
1 1 1 1 2 3 3 2 1 1 2 3 3 2 1 0 0 0 0 0 0 0 0 0 0 0 0 0 0 0 0 0 0 0 0 0 0 0 0 0 0 0 0
1 1 1 2 2 2 2 1 1 2 4 5 4 2 1 0 0 0 0 0 0 0 0 0 0 0 0 0 0 0 0 0 0 0 0 0 0 0 0 0 0 0 0
1 1 2 2 1 0 0 0 1 2 5 6 4 3 1 0 0 0 0 0 0 0 0 0 0 0 0 0 0 0 0 0 0 0 0 0 0 0 0 0 0 0 0
0 1 1 1 0 0 0 0 0 1 3 5 5 3 1 0 0 0 0 0 0 0 0 0 0 0 0 0 0 0 0 0 0 0 0 0 0 0 0 0 0 0 0
0 0 0 0 0 0 0 0 0 1 2 4 4 3 1 0 0 0 0 0 0 0 0 0 0 0 0 0 0 0 0 0 0 0 0 0 0 0 0 0 0 0 0
0 0 0 0 0 0 0 0 0 0 1 2 2 2 1 1 1 1 0 0 0 0 0 0 0 0 0 0 0 0 0 0 0 0 0 0 0 0 0 0 0 0 0
0 0 0 0 0 0 0 0 0 0 0 1 1 1 2 1 1 0 0 0 0 0 0 0 0 0 0 0 0 0 0 0 0 0 0 0 0 0 0 0 0 0 0
0 0 0 0 0 0 0 0 0 0 0 0 0 1 1 1 0 0 0 0 0 0 0 0 0 0 0 0 0 0 0 0 0 0 0 0 0 0 0 0 0 0 0
Wind_Speed
6 6 6 6 4 4 5 5 5 4 4 3 3 2 1 1 1 2 3 3 3 4 4 3 3 3 3 3 3 3 3 2 2 3 3 3 4 4 3 3 3 3 3
4 5 6 6 6 5 5 5 5 5 4 4 3 3 3 2 1 1 2 2 3 4 4 4 3 3 3 3 3 3 2 1 1 2 2 2 3 4 3 3 2 3 3
8 7 6 6 6 5 6 6 5 5 4 4 3 3 2 2 2 1 1 1 2 3 4 4 4 3 3 3 2 3 3 2 0 1 3 3 1 1 3 3 2 2 2
8 7 7 6 7 7 6 6 5 4 4 5 5 5 4 3 3 2 1 1 2 3 3 4 4 3 3 3 2 2 2 3 1 0 0 2 3 3 0 2 2 2 2
9 8 8 7 7 6 6 6 5 4 4 5 6 6 4 3 2 2 2 1 1 2 3 3 4 3 3 3 2 2 2 2 2 1 1 1 2 2 3 0 2 2 2
8 8 7 5 5 5 5 5 6 4 4 5 5 6 6 4 4 3 2 2 1 1 2 3 3 3 3 3 3 2 2 2 2 2 1 2 2 1 2 2 1 1 2
7 7 6 5 5 6 6 6 6 5 4 5 5 6 6 6 5 4 4 3 2 2 3 3 3 3 3 3 3 3 2 2 2 2 1 1 1 2 2 3 2 0 1
6 8 8 8 7 7 7 6 6 5 5 5 5 4 5 4 4 4 4 4 3 3 4 4 4 4 4 3 3 2 2 2 2 2 2 1 1 2 3 3 3 1 1
6 8 7 7 6 7 7 8 7 5 5 6 5 4 4 4 4 4 4 3 3 3 4 4 4 4 4 4 3 2 2 3 2 2 2 1 1 2 2 2 3 4 2
4 4 5 5 4 4 4 5 6 6 6 5 5 4 4 4 4 4 4 3 3 3 4 4 4 3 3 4 3 2 3 3 2 2 2 2 1 1 2 2 2 2 3
4 5 4 4 4 3 3 3 3 4 4 5 5 4 4 4 3 4 4 4 3 3 3 4 4 4 4 4 4 4 4 4 3 2 3 3 2 2 2 2 2 2 3
4 4 4 4 3 3 3 3 3 3 3 4 4 4 4 4 4 4 4 4 4 3 3 3 3 3 3 3 4 4 4 4 4 3 3 3 2 3 2 2 3 2 3
2 2 3 3 4 4 3 3 3 3 2 3 3 3 4 4 5 5 4 4 5 4 3 3 4 4 3 4 4 4 4 4 4 4 4 4 4 3 2 3 3 2 2
2 2 2 2 3 3 3 3 3 3 3 3 3 4 4 5 5 4 4 4 4 4 4 4 4 4 4 4 4 3 3 3 3 4 5 5 5 5 5 4 4 3 3
2 2 1 1 1 1 2 3 3 2 2 3 3 4 4 4 4 4 4 4 4 4 4 3 3 3 3 3 3 3 4 3 3 3 3 4 5 6 6 4 4 5 4
1 1 1 1 1 2 3 3 2 2 2 2 3 3 3 3 3 3 3 3 3 3 3 4 4 3 3 4 5 4 3 3 3 3 3 3 5 6 7 7 7 8 7
1 1 2 2 3 3 3 4 4 2 2 2 2 2 2 3 4 4 3 4 4 3 3 3 4 4 4 4 4 5 4 4 4 4 3 3 3 5 4 5 6 6 7
0 1 1 1 2 2 2 2 2 2 3 3 2 2 3 3 3 3 3 4 3 4 4 4 4 3 4 5 5 5 4 3 3 4 4 4 3 4 5 4 4 4 4
0 1 1 2 1 1 1 1 0 1 2 2 2 3 3 3 3 3 4 3 3 3 4 4 4 4 4 5 5 4 2 2 2 2 3 4 4 5 5 5 5 4 4
0 0 1 1 1 1 0 2 0 1 2 3 3 3 3 4 4 5 4 3 3 3 4 3 4 4 4 5 5 5 2 2 2 2 3 5 5 6 6 5 5 6 5
1 1 1 1 1 1 1 1 0 2 4 3 2 2 3 3 4 4 3 3 3 3 3 3 3 3 4 5 6 5 3 4 3 3 2 3 5 6 7 6 5 7 5
1 1 1 1 2 1 1 1 2 3 2 1 1 2 2 3 2 2 2 2 3 3 3 3 2 2 3 4 5 6 6 5 4 4 3 3 4 5 6 5 6 6 5
0 1 0 1 2 1 0 1 3 3 2 1 2 2 2 3 2 2 3 2 2 3 3 3 3 2 2 2 5 6 6 6 4 3 4 4 4 4 4 5 6 5 3
1 0 1 0 2 2 1 2 2 2 1 1 2 2 2 2 2 2 3 3 3 3 3 3 4 3 2 2 2 3 3 4 3 2 2 2 2 2 2 2 3 3 3
1 1 1 1 2 2 2 2 1 1 1 1 2 2 1 2 2 2 2 3 4 5 5 5 4 4 4 5 6 4 3 4 4 3 1 1 0 1 1 1 1 2 2
1 1 1 2 2 2 3 2 1 0 0 1 1 1 1 2 2 2 2 3 3 4 5 5 5 4 5 5 6 6 6 7 6 4 2 2 3 3 3 2 2 2 3
Wind_Direction
195 177 172 166 159 161 152 156 154 155 143 131 127 124 127 116 91 105 112 113 113 114 110 106 99 95 100 106 104 99 87 70 88 82 50 22 24 36 29 36 50 47 45
182 181 175 172 170 170 164 162 166 163 158 157 158 159 153 142 134 112 103 118 119 122 120 116 115 112 106 98 97 104 99 87 85 106 96 37 7 2 12 20 44 45 46
185 183 175 174 170 172 174 173 173 164 164 155 133 108 80 65 60 74 100 122 126 128 130 131 128 124 123 129 131 129 123 144 288 118 134 139 183 330 349 3 21 32 47
185 181 176 175 180 182 176 169 169 164 163 155 149 150 150 157 188 184 176 158 149 144 143 146 142 141 138 143 157 146 139 138 163 319 92 140 148 142 32 339 352 14 39
181 180 182 182 182 177 171 169 166 164 163 162 160 156 153 169 171 160 154 155 167 163 156 155 152 153 154 160 159 144 146 147 155 161 137 86 75 102 131 198 323 351 358
180 181 183 170 167 166 163 160 160 171 170 164 163 160 162 164 157 159 167 179 189 198 185 167 164 167 165 169 171 169 167 169 155 149 143 144 144 159 138 151 205 298 315
176 177 175 170 173 171 168 166 164 173 172 167 172 174 174 173 175 176 180 180 186 202 208 187 180 178 183 182 171 168 179 172 166 171 174 168 172 157 143 135 153 179 305
179 180 183 181 182 181 175 173 178 178 173 172 182 183 176 176 184 184 182 190 197 203 200 188 187 191 186 182 169 170 182 171 183 187 173 160 176 157 152 151 145 121 354
180 185 186 183 183 183 183 182 181 180 185 186 181 185 184 179 184 185 182 191 198 198 190 184 184 188 188 181 167 175 193 180 189 187 173 163 174 160 159 148 149 147 157
158 162 170 172 173 176 182 183 180 181 187 184 183 185 189 187 185 175 183 191 195 190 183 188 187 186 186 182 174 182 195 174 189 184 170 174 171 147 145 151 146 142 149
178 177 175 172 167 160 157 162 176 177 183 186 187 190 192 189 182 182 193 194 189 184 185 190 190 190 192 187 182 192 184 180 191 192 180 193 174 160 166 150 139 133 131
181 174 166 159 155 157 159 161 163 177 195 190 184 190 186 182 186 193 197 190 188 191 191 184 183 191 196 190 186 194 189 184 193 199 185 198 176 172 169 161 161 156 147
152 144 148 163 169 173 178 175 170 180 186 174 174 182 184 186 196 200 197 193 194 194 192 180 184 191 194 194 198 191 187 188 197 194 191 198 174 182 180 174 169 164 150
155 151 160 184 186 186 186 184 189 188 177 171 178 193 197 193 195 196 192 192 190 189 194 193 194 201 199 194 195 187 184 192 199 198 196 194 189 192 184 179 177 162 146
78 133 159 190 187 197 202 193 196 198 187 177 187 206 205 195 191 188 194 194 188 192 191 186 190 196 197 198 188 186 185 185 196 207 201 196 193 192 185 180 179 165 160
165 176 170 180 211 216 214 208 212 211 183 187 207 213 199 198 200 198 190 184 188 190 179 181 183 190 208 205 197 183 187 186 188 203 215 211 200 203 197 192 184 176 172
197 211 213 207 219 224 211 210 214 204 189 203 219 206 198 204 209 205 190 191 194 188 189 193 184 197 212 202 195 195 180 187 194 198 203 210 202 194 193 203 198 197 197
344 282 280 249 244 230 233 231 210 192 199 204 211 209 200 207 205 196 202 208 200 192 193 197 195 198 222 217 208 198 182 190 202 199 194 192 202 198 187 182 187 203 214
192 278 286 265 260 241 199 111 176 200 211 216 220 221 200 198 199 206 212 209 198 202 202 194 193 200 230 227 215 192 168 184 205 206 192 187 197 211 187 176 191 208 230
342 283 317 350 333 302 105 93 77 221 235 234 231 232 213 200 207 216 215 209 197 202 200 203 202 204 218 223 214 195 170 185 210 219 220 211 206 206 195 186 192 208 221
312 337 24 17 296 301 93 103 73 253 252 251 244 241 232 221 218 218 217 210 203 195 200 206 215 214 218 221 214 202 182 192 200 213 228 235 227 218 211 203 205 218 207
359 10 22 329 315 325 106 99 267 265 269 253 237 256 257 243 228 210 218 207 193 195 205 203 221 235 229 215 214 211 209 194 190 212 220 228 229 230 225 216 219 219 202
304 1 52 348 333 317 175 233 277 286 284 272 250 241 252 249 227 204 215 222 206 200 208 201 214 233 235 231 226 217 212 204 200 213 217 224 230 233 228 221 216 208 189
254 279 84 346 306 306 305 270 279 291 278 253 261 255 254 257 243 221 211 210 212 210 211 210 218 226 225 229 226 214 209 208 215 217 210 215 218 221 230 227 219 207 197
293 290 215 234 269 290 295 303 307 319 314 281 281 277 261 248 249 242 226 220 222 211 207 212 209 207 223 233 214 196 204 200 198 167 137 137 156 217 241 237 227 218 210
274 289 291 283 283 289 296 304 295 209 152 288 281 275 275 271 250 238 274 269 252 250 236 229 218 224 229 233 221 216 216 207 189 165 185 208 207 214 224 224 235 230 226